CAPE
423 774 946 1059 1077 1090 1135 1160 1166 1274 1424 1412 1296 1260 1341 1351 1355 1348 1422 1533 1639 1587 1614 1776 1994 2042 2194 2323 2210 2402 2511 2309 2205 1692 1598 1915 1927 1851 1768 1843 1418 763 1152
526 826 903 1047 1179 1259 1429 1472 1444 1445 1436 1494 1468 1505 1556 1538 1449 1356 1312 1476 1606 1346 1453 1616 1827 1862 1856 1945 1976 2430 2444 2352 2189 2076 1983 1701 1592 1435 1270 1727 1081 699 1139
717 868 974 1007 1212 1510 1750 1739 1788 1707 1701 1654 1613 1697 1659 1436 1249 1101 1218 1504 1377 1235 1378 1326 1534 1788 1627 1511 1689 2005 2116 2111 1947 1793 1865 1238 652 1559 1204 1127 1238 1636 1592
857 1022 1070 1087 1285 1559 1608 1658 1735 1826 1842 1841 1876 1747 1466 1220 999 908 1044 1310 1019 930 1020 932 858 801 875 1097 1315 1744 1986 1948 1920 1782 1227 921 1138 946 503 1391 978 1282 1316
1366 1450 1345 1237 1442 1631 1667 1719 1802 1839 1885 1855 1849 1300 1072 973 851 889 800 832 441 443 587 672 736 840 1002 1170 1321 1408 1419 1591 1540 1379 903 783 578 495 697 1116 1529 1513 1168
1415 1596 1699 1649 1674 1654 1732 1741 1648 1609 1540 1638 1490 1040 1039 834 725 543 355 202 127 128 157 147 130 218 504 734 835 947 1136 1139 1064 596 641 728 598 649 633 943 1417 1277 1398
1380 1537 1647 1697 1659 1715 1838 1744 1557 1467 1399 1379 1371 1316 911 605 427 324 221 104 49 45 32 17 0 5 49 242 286 458 482 471 477 432 797 738 440 304 896 617 783 1169 1056
1326 1355 1434 1357 1270 1284 1353 1292 1188 1229 1285 1227 1166 1082 768 548 452 226 131 41 11 2 0 0 0 0 0 4 92 167 98 141 90 561 716 610 509 397 326 738 1102 1129 758
996 944 966 984 933 807 846 869 908 963 940 913 914 916 791 576 387 281 145 17 0 0 0 0 0 0 0 0 17 44 11 30 0 122 698 647 831 779 794 1089 1770 1359 1184
484 574 559 455 409 418 588 655 698 749 678 575 615 659 555 444 209 225 119 46 0 0 0 0 0 0 0 0 0 0 0 20 8 36 232 435 1340 1082 1049 1141 1505 1696 1588
292 482 433 578 678 252 325 619 666 733 642 503 550 480 413 416 214 105 84 63 75 23 7 0 0 0 0 0 0 0 0 0 0 0 99 433 480 471 730 800 1018 1107 1051
207 418 512 627 829 370 241 309 308 500 517 519 568 448 448 490 479 149 142 159 172 124 170 108 63 0 0 0 0 0 0 0 0 0 11 40 89 47 215 671 823 813 802
125 404 415 292 163 294 240 395 459 513 630 701 630 474 542 256 416 210 346 265 198 160 137 107 33 0 0 0 0 0 0 0 0 0 0 1 2 0 0 56 423 587 742
167 691 613 638 403 185 1 160 510 486 699 670 766 587 505 252 37 38 0 0 15 71 137 129 37 7 0 0 0 0 0 0 0 0 0 0 0 0 0 22 85 112 188
256 853 806 676 552 411 346 288 213 238 214 242 495 327 165 144 37 36 42 2 0 2 0 2 0 0 0 0 0 0 0 0 0 0 0 0 0 0 0 0 0 3 52
164 1003 905 735 868 577 198 477 478 296 178 325 99 50 88 30 104 68 45 41 19 44 49 10 0 0 4 0 0 0 0 0 0 0 0 0 0 0 0 0 0 0 8
157 897 688 689 729 412 260 310 672 172 1 10 5 0 11 33 48 38 48 45 36 82 126 65 51 43 24 17 35 14 0 0 0 0 0 0 0 0 0 3 0 0 26
456 1079 902 263 586 193 208 166 87 68 28 35 35 25 14 17 0 0 0 0 19 38 39 20 25 78 91 71 50 56 48 22 2 0 0 0 0 0 0 0 21 48 71
47 821 988 476 301 142 54 86 101 102 39 17 14 10 16 0 0 0 0 0 0 0 0 0 7 9 5 5 11 22 60 60 95 92 73 29 0 0 0 0 0 22 108
89 377 574 384 176 30 79 116 51 70 3 1 0 0 0 0 0 0 0 0 0 0 0 0 0 0 0 8 26 14 66 81 119 86 93 71 54 45 13 0 0 0 26
203 222 165 83 19 54 102 142 54 18 3 0 0 0 0 0 0 0 0 0 0 0 0 0 0 0 0 0 0 0 0 0 0 10 44 105 125 86 35 40 26 0 0
156 193 137 115 82 39 48 50 39 10 1 0 0 0 0 0 0 0 0 0 0 0 0 0 0 0 0 0 0 0 0 0 0 0 15 71 89 41 68 63 40 23 3
88 141 165 147 109 83 57 42 29 8 4 0 0 0 0 0 0 0 0 0 0 0 0 0 0 0 0 0 0 0 0 0 0 0 0 0 0 28 60 72 70 47 30
2 0 2 11 24 8 3 0 0 0 0 0 0 2 0 0 0 0 0 0 0 0 0 0 0 0 0 0 0 1 25 27 21 6 0 0 0 32 58 83 88 85 41
0 0 0 0 0 0 0 0 0 0 0 0 0 0 0 0 0 0 0 0 0 0 0 0 0 0 0 8 15 24 39 28 10 6 1 0 0 0 2 13 86 83 53
0 0 0 0 0 0 0 0 0 0 0 0 0 0 0 0 0 0 0 0 0 0 0 0 0 2 6 16 32 6 20 13 4 2 0 0 0 0 0 0 0 31 72
CIN
-62 -27 -37 -27 -13 -13 -13 -12 -15 -5 -0 -0 -0 -2 -2 -5 -7 -10 -9 -8 -11 -22 -31 -25 -16 -12 -10 -3 -4 -1 -7 -22 -27 -34 -13 -9 -8 -11 -11 -17 -40 -92 -75
-66 -22 -39 -20 -9 -5 -4 -4 -3 -1 -4 -0 -3 -0 -1 -1 -5 -13 -22 -17 -19 -35 -36 -35 -23 -21 -19 -10 -6 -1 -2 -8 -17 -29 -33 -25 -8 -15 -12 -16 -58 -93 -50
-42 -26 -26 -20 -7 -1 -0 -0 -0 -0 -0 -0 -0 -0 -0 -2 -10 -17 -11 -2 -14 -35 -34 -40 -24 -6 -17 -35 -17 -2 -2 -3 -11 -24 -24 -55 -72 -14 -10 -17 -24 -9 -16
-31 -25 -19 -21 -9 -1 -1 -0 -1 -0 -0 -1 -0 -0 -0 -1 -18 -30 -21 -9 -34 -42 -42 -51 -61 -72 -77 -54 -36 -6 -0 -4 -12 -22 -41 -43 -26 -56 -70 -14 -13 -12 -12
-25 -16 -11 -10 -3 -1 -1 -0 -0 -1 -0 -0 -0 -2 -14 -27 -42 -41 -41 -41 -75 -73 -63 -64 -60 -46 -31 -23 -23 -31 -34 -19 -23 -36 -48 -50 -60 -52 -140 -44 -6 -8 -25
-15 -9 -1 -1 -1 -8 -0 -0 -0 -0 -0 -0 -0 -21 -18 -39 -56 -62 -86 -130 -165 -169 -166 -188 -198 -151 -92 -68 -66 -59 -40 -41 -53 -81 -50 -31 -138 -118 -97 -98 -42 -10 -9
-23 -23 -7 -0 -0 -0 -0 -0 -0 -0 -2 -2 -2 -6 -41 -67 -80 -101 -123 -182 -245 -267 -291 -361 -38 -286 -275 -148 -140 -119 -120 -138 -125 -69 -20 -44 -79 -174 -111 -121 -71 -9 -24
-68 -46 -33 -36 -49 -37 -16 -17 -30 -24 -15 -20 -19 -32 -62 -74 -76 -133 -156 -252 -310 -172 -0 -0 -0 -0 -0 -113 -213 -173 -209 -192 -243 -22 -56 -50 -54 -136 -50 -48 -37 -10 -29
-119 -139 -117 -121 -115 -119 -93 -74 -69 -65 -72 -69 -61 -53 -54 -71 -98 -111 -163 -280 -14 -0 -0 -0 -0 -0 -0 -0 -238 -225 -272 -230 -0 -37 -59 -80 -84 -62 -50 -39 -3 -8 -27
-146 -148 -196 -236 -227 -219 -161 -140 -130 -117 -121 -123 -113 -103 -119 -136 -175 -148 -165 -195 -10 -0 -0 -0 -0 -0 -0 -0 -0 -0 -0 -193 -90 -50 -62 -90 -23 -17 -15 -14 -5 -7 -8
-109 -88 -58 -70 -67 -246 -249 -173 -159 -132 -134 -143 -129 -146 -132 -98 -211 -211 -248 -232 -199 -226 -71 -0 -0 -0 -0 -0 -0 -0 -0 -0 -0 -0 -44 -54 -48 -53 -36 -29 -25 -16 -23
-55 -61 -70 -71 -70 -83 -169 -255 -235 -182 -174 -106 -60 -78 -76 -93 -96 -125 -81 -128 -171 -176 -151 -170 -166 -0 -0 -0 -0 -0 -0 -0 -0 -0 -32 -140 -85 -70 -57 -23 -12 -13 -14
-90 -88 -68 -53 -100 -98 -166 -128 -184 -77 -86 -86 -80 -55 -24 -48 -22 -53 -37 -89 -107 -155 -161 -157 -214 -0 -0 -0 -0 -0 -0 -0 -0 -0 -0 -16 -16 -0 -0 -77 -23 -0 -1
-86 -32 -52 -71 -76 -91 -19 -116 -75 -53 -49 -52 -39 -42 -48 -71 -117 -106 -0 -0 -152 -129 -115 -93 -124 -114 -0 -0 -0 -0 -0 -0 -0 -0 -0 -0 -0 -0 -0 -88 -78 -75 -42
-51 -33 -43 -94 -93 -89 -72 -63 -33 -64 -33 -50 -40 -76 -95 -84 -121 -126 -122 -84 -8 -36 -0 -63 -0 -0 -0 -0 -0 -0 -0 -0 -0 -0 -0 -0 -0 -0 -0 -0 -0 -24 -84
-22 -37 -36 -66 -78 -99 -85 -76 -60 -43 -56 -37 -59 -100 -90 -106 -77 -97 -88 -93 -77 -50 -39 -45 -0 -0 -28 -0 -0 -0 -0 -0 -0 -0 -0 -0 -0 -0 -0 -0 -0 -0 -61
-8 -50 -53 -158 -78 -35 -71 -70 -55 -58 -7 -81 -71 -0 -110 -111 -94 -86 -73 -70 -62 -34 -27 -33 -36 -22 -12 -14 -15 -4 -0 -0 -0 -0 -0 -0 -0 -0 -0 -105 -0 -0 -89
-183 -95 -47 -122 -125 -56 -68 -65 -87 -96 -101 -68 -20 -32 -35 -24 -0 -0 -0 -0 -91 -68 -48 -33 -32 -10 -9 -5 -0 -13 -7 -2 -0 -0 -0 -0 -0 -0 -0 -0 -114 -87 -67
-73 -79 -73 -40 -108 -76 -37 -64 -80 -73 -69 -79 -61 -47 -28 -0 -0 -0 -0 -0 -0 -0 -0 -0 -32 -38 -27 -2 -1 -27 -5 -3 -0 -0 -0 -0 -0 -0 -0 -0 -0 -130 -82
-104 -174 -30 -28 -156 -69 -31 -61 -92 -65 -101 -60 -7 -0 -0 -0 -23 -0 -0 -0 -0 -0 -0 -0 -0 -0 -0 -1 -58 -53 -14 -11 -9 -11 -9 -7 -3 -2 -0 -0 -0 -0 -140
-106 -49 -59 -56 -31 -18 -24 -28 -40 -20 -48 -0 -0 -0 -0 -0 -0 -0 -0 -0 -0 -0 -0 -0 -0 -0 -0 -0 -0 -0 -0 -0 -0 -28 -23 -13 -17 -14 -6 -2 -0 -0 -0
-96 -64 -51 -38 -35 -28 -29 -26 -22 -19 -1 -0 -0 -0 -0 -0 -0 -0 -0 -0 -0 -0 -0 -0 -0 -0 -0 -0 -0 -0 -0 -0 -0 -0 -25 -0 -0 -9 -28 -36 -19 -5 -2
-78 -41 -29 -17 -11 -26 -26 -12 -13 -7 -8 -0 -0 -0 -0 -0 -0 -0 -0 -0 -0 -0 -0 -0 -0 -0 -0 -0 -0 -0 -0 -0 -0 -0 -0 -0 -0 -15 -13 -20 -45 -15 -6
-16 -14 -11 -46 -38 -12 -3 -0 -0 -0 -0 -0 -0 -4 -0 -0 -0 -0 -0 -0 -0 -0 -0 -0 -0 -0 -0 -0 -0 -2 -5 -2 -1 -0 -0 -0 -0 -5 -4 -1 -10 -0 -0
-0 -0 -0 -0 -0 -0 -0 -0 -0 -0 -0 -0 -0 -0 -0 -0 -0 -0 -0 -0 -0 -0 -0 -0 -0 -0 -0 -7 -4 -4 -3 -0 -0 -0 -0 -0 -0 -0 -6 -2 -0 -0 -0
-0 -0 -0 -0 -0 -0 -0 -0 -0 -0 -0 -0 -0 -0 -0 -0 -0 -0 -0 -0 -0 -0 -0 -0 -0 -35 -27 -23 -15 -0 -9 -0 -2 -0 -0 -0 -0 -0 -0 -0 -0 -1 -0
Wind_Speed
30 28 28 34 32 35 35 30 28 26 26 23 20 20 20 19 19 20 21 19 17 17 16 18 21 21 20 25 27 22 20 21 22 31 37 36 40 37 40 41 38 41 34
31 24 36 35 36 30 23 20 19 18 16 15 15 15 14 15 15 14 13 12 12 12 11 13 16 19 20 20 17 15 15 19 22 22 21 31 34 38 39 36 38 37 32
33 33 34 34 28 21 21 19 18 16 14 11 5 4 3 3 3 4 3 4 4 6 8 8 9 12 14 16 16 16 17 16 17 20 22 22 27 35 36 33 37 37 37
37 31 28 25 20 20 22 21 18 14 10 8 8 7 7 6 8 8 10 9 10 10 9 9 9 8 8 10 12 13 14 15 16 17 17 22 26 33 35 28 25 30 35
31 24 19 18 18 19 18 18 16 13 10 10 10 10 9 11 11 13 13 13 14 12 11 12 12 11 9 8 9 10 11 11 13 14 14 23 25 24 27 33 29 28 35
20 18 18 17 16 15 14 12 10 10 11 12 14 13 14 14 16 15 15 14 14 14 14 14 13 12 11 12 10 11 12 11 10 11 21 20 22 20 19 31 35 16 28
15 14 14 11 10 11 13 13 13 11 13 15 17 17 19 20 20 20 19 18 nan nan nan nan nan nan nan 10 11 14 14 14 15 14 19 19 16 14 16 18 9 22 5
13 10 8 10 13 13 14 16 17 17 18 20 20 21 23 22 23 24 22 nan nan nan nan nan nan nan nan nan nan 12 nan 15 nan 19 19 21 16 15 21 16 17 18 14
8 6 3 7 11 15 17 19 20 22 23 22 21 22 23 23 27 29 28 nan nan nan nan nan nan nan nan nan nan nan nan nan nan 22 23 20 21 18 17 15 13 9 10
5 6 8 11 12 13 16 21 23 24 25 26 24 24 26 28 30 30 30 nan nan nan nan nan nan nan nan nan nan nan nan nan nan nan 24 25 27 23 19 16 15 10 9
7 12 13 15 15 15 17 19 26 28 29 30 29 32 29 27 30 31 nan nan nan nan nan nan nan nan nan nan nan nan nan nan nan nan nan 29 28 25 22 21 21 16 13
8 10 12 14 15 19 17 20 20 23 24 25 27 30 28 28 28 29 28 31 28 28 30 32 nan nan nan nan nan nan nan nan nan nan nan nan nan nan 25 22 21 19 17
10 9 16 19 20 16 18 21 22 22 24 27 31 31 32 32 30 33 32 32 31 30 33 33 nan nan nan nan nan nan nan nan nan nan nan nan nan nan nan nan 23 22 19
10 18 23 20 21 23 nan 24 22 25 28 29 32 36 36 36 nan nan nan nan nan nan 38 36 nan nan nan nan nan nan nan nan nan nan nan nan nan nan nan nan nan 22 24
20 22 25 25 20 24 26 29 31 34 36 37 38 39 38 36 nan nan nan nan nan nan nan nan nan nan nan nan nan nan nan nan nan nan nan nan nan nan nan nan nan nan nan
24 28 25 32 23 21 18 32 32 38 38 38 nan nan nan nan 41 nan nan nan nan nan nan nan nan nan nan nan nan nan nan nan nan nan nan nan nan nan nan nan nan nan nan
26 40 43 24 34 28 28 39 36 35 nan nan nan nan nan nan nan nan nan nan nan nan 36 nan nan nan nan nan nan nan nan nan nan nan nan nan nan nan nan nan nan nan nan
37 44 46 43 40 21 35 37 nan nan nan nan nan nan nan nan nan nan nan nan nan nan nan nan nan nan nan nan nan nan nan nan nan nan nan nan nan nan nan nan nan nan nan
nan 40 49 48 41 37 nan nan 39 48 nan nan nan nan nan nan nan nan nan nan nan nan nan nan nan nan nan nan nan nan nan nan nan nan nan nan nan nan nan nan nan nan 44
nan 43 52 49 46 nan nan 46 nan nan nan nan nan nan nan nan nan nan nan nan nan nan nan nan nan nan nan nan nan nan nan nan 56 nan nan nan nan nan nan nan nan nan nan
43 48 51 nan nan nan 51 44 nan nan nan nan nan nan nan nan nan nan nan nan nan nan nan nan nan nan nan nan nan nan nan nan nan nan nan 67 67 nan nan nan nan nan nan
47 51 54 50 nan nan nan nan nan nan nan nan nan nan nan nan nan nan nan nan nan nan nan nan nan nan nan nan nan nan nan nan nan nan nan nan nan nan nan nan nan nan nan
nan 51 52 53 54 nan nan nan nan nan nan nan nan nan nan nan nan nan nan nan nan nan nan nan nan nan nan nan nan nan nan nan nan nan nan nan nan nan nan nan nan nan nan
nan nan nan nan nan nan nan nan nan nan nan nan nan nan nan nan nan nan nan nan nan nan nan nan nan nan nan nan nan nan nan nan nan nan nan nan nan nan nan nan nan nan nan
nan nan nan nan nan nan nan nan nan nan nan nan nan nan nan nan nan nan nan nan nan nan nan nan nan nan nan nan nan nan nan nan nan nan nan nan nan nan nan nan nan nan nan
nan nan nan nan nan nan nan nan nan nan nan nan nan nan nan nan nan nan nan nan nan nan nan nan nan nan nan nan nan nan nan nan nan nan nan nan nan nan nan nan nan nan nan
Wind_Direction
292 304 298 298 295 290 287 284 283 281 283 292 296 298 294 285 275 273 274 274 275 267 259 259 253 252 258 265 255 259 263 263 260 262 262 261 262 263 252 252 255 248 240
299 297 295 295 292 288 280 285 290 293 300 309 308 299 294 281 275 274 279 282 271 267 265 267 262 263 266 268 269 271 268 265 268 274 260 255 268 264 266 262 262 247 236
291 292 295 294 288 281 282 286 287 292 296 299 291 300 314 312 296 301 303 301 288 274 267 272 273 267 259 254 254 259 264 271 269 268 273 278 256 261 263 258 251 249 240
288 291 295 287 282 285 284 283 283 280 265 251 261 263 273 287 293 295 302 306 302 298 290 286 284 281 260 255 256 259 259 253 244 243 266 272 276 254 252 264 265 266 250
280 285 284 279 281 279 278 267 261 249 239 262 275 270 278 287 291 289 294 293 290 287 281 276 278 283 292 280 262 257 251 242 242 249 258 274 282 285 273 256 262 254 251
271 268 263 271 277 280 282 285 284 280 276 267 274 283 295 293 290 293 289 286 286 286 284 279 282 285 289 283 273 261 255 262 267 284 284 287 281 278 291 280 255 252 254
261 255 257 272 286 295 296 290 287 287 286 292 294 300 299 298 300 295 291 287 nan nan nan nan nan nan nan 298 289 282 276 268 276 280 312 314 323 303 314 321 290 237 275
260 252 252 281 282 290 300 308 312 311 305 300 301 306 300 305 304 301 303 nan nan nan nan nan nan nan nan nan nan 281 nan 279 nan 279 300 305 318 301 323 357 349 0 6
273 278 299 285 305 309 314 313 311 309 309 306 311 311 313 315 311 315 317 nan nan nan nan nan nan nan nan nan nan nan nan nan nan 279 300 298 311 305 309 342 7 355 349
281 318 322 322 320 318 319 315 309 307 310 317 319 317 322 319 318 321 317 nan nan nan nan nan nan nan nan nan nan nan nan nan nan nan 286 289 295 297 296 291 300 313 319
298 321 323 321 321 311 310 314 314 319 322 321 323 326 322 317 319 323 nan nan nan nan nan nan nan nan nan nan nan nan nan nan nan nan nan 294 289 285 282 278 284 300 294
305 303 305 301 305 306 307 310 312 315 312 315 323 318 313 315 315 318 321 327 328 326 326 323 nan nan nan nan nan nan nan nan nan nan nan nan nan nan 285 291 291 288 283
342 313 296 295 302 308 311 313 315 317 318 322 323 315 313 312 315 317 317 314 311 314 310 310 nan nan nan nan nan nan nan nan nan nan nan nan nan nan nan nan 279 276 283
311 300 296 305 305 304 nan 306 302 305 308 320 322 319 315 313 nan nan nan nan nan nan 308 307 nan nan nan nan nan nan nan nan nan nan nan nan nan nan nan nan nan 271 272
308 310 307 304 294 305 308 311 309 311 315 320 319 318 314 311 nan nan nan nan nan nan nan nan nan nan nan nan nan nan nan nan nan nan nan nan nan nan nan nan nan nan nan
312 311 292 277 297 305 304 306 312 312 311 309 nan nan nan nan 311 nan nan nan nan nan nan nan nan nan nan nan nan nan nan nan nan nan nan nan nan nan nan nan nan nan nan
305 301 299 284 329 278 334 316 311 315 nan nan nan nan nan nan nan nan nan nan nan nan 302 nan nan nan nan nan nan nan nan nan nan nan nan nan nan nan nan nan nan nan nan
314 313 313 318 318 302 320 317 nan nan nan nan nan nan nan nan nan nan nan nan nan nan nan nan nan nan nan nan nan nan nan nan nan nan nan nan nan nan nan nan nan nan nan
nan 304 308 313 326 318 nan nan 309 308 nan nan nan nan nan nan nan nan nan nan nan nan nan nan nan nan nan nan nan nan nan nan nan nan nan nan nan nan nan nan nan nan 282
nan 296 303 313 321 nan nan 304 nan nan nan nan nan nan nan nan nan nan nan nan nan nan nan nan nan nan nan nan nan nan nan nan 285 nan nan nan nan nan nan nan nan nan nan
289 290 300 nan nan nan 305 305 nan nan nan nan nan nan nan nan nan nan nan nan nan nan nan nan nan nan nan nan nan nan nan nan nan nan nan 281 279 nan nan nan nan nan nan
288 291 294 294 nan nan nan nan nan nan nan nan nan nan nan nan nan nan nan nan nan nan nan nan nan nan nan nan nan nan nan nan nan nan nan nan nan nan nan nan nan nan nan
nan 284 285 286 289 nan nan nan nan nan nan nan nan nan nan nan nan nan nan nan nan nan nan nan nan nan nan nan nan nan nan nan nan nan nan nan nan nan nan nan nan nan nan
nan nan nan nan nan nan nan nan nan nan nan nan nan nan nan nan nan nan nan nan nan nan nan nan nan nan nan nan nan nan nan nan nan nan nan nan nan nan nan nan nan nan nan
nan nan nan nan nan nan nan nan nan nan nan nan nan nan nan nan nan nan nan nan nan nan nan nan nan nan nan nan nan nan nan nan nan nan nan nan nan nan nan nan nan nan nan
nan nan nan nan nan nan nan nan nan nan nan nan nan nan nan nan nan nan nan nan nan nan nan nan nan nan nan nan nan nan nan nan nan nan nan nan nan nan nan nan nan nan nan